Year,Month,Day,Hour,Minute,Value (Times are PST for temperature in C)
2009,07,27,00,00,19.70
2009,07,27,00,01,19.70
2009,07,27,00,02,19.70
2009,07,27,00,03,19.70
2009,07,27,00,04,19.70
2009,07,27,00,05,19.70
2009,07,27,00,06,19.70
2009,07,27,00,07,19.70
2009,07,27,00,08,19.70
2009,07,27,00,09,19.60
2009,07,27,00,10,19.60
2009,07,27,00,11,19.60
2009,07,27,00,12,19.60
2009,07,27,00,13,19.60
2009,07,27,00,14,19.60
2009,07,27,00,15,19.60
2009,07,27,00,16,19.60
2009,07,27,00,17,19.60
2009,07,27,00,18,19.60
2009,07,27,00,19,19.60
2009,07,27,00,20,19.60
2009,07,27,00,21,19.60
2009,07,27,00,22,19.60
2009,07,27,00,23,19.60
2009,07,27,00,24,19.60
2009,07,27,00,25,19.70
2009,07,27,00,26,19.70
2009,07,27,00,27,19.70
2009,07,27,00,28,19.70
2009,07,27,00,29,19.70
2009,07,27,00,30,19.70
2009,07,27,00,31,19.70
2009,07,27,00,32,19.70
2009,07,27,00,33,19.70
2009,07,27,00,34,19.70
2009,07,27,00,35,19.70
2009,07,27,00,36,19.60
2009,07,27,00,37,19.60
2009,07,27,00,38,19.50
2009,07,27,00,39,19.50
2009,07,27,00,40,19.40
2009,07,27,00,41,19.30
2009,07,27,00,42,19.30
2009,07,27,00,43,19.30
2009,07,27,00,44,19.20
2009,07,27,00,45,19.20
2009,07,27,00,46,19.20
2009,07,27,00,47,19.20
2009,07,27,00,48,19.20
2009,07,27,00,49,19.20
2009,07,27,00,50,19.20
2009,07,27,00,51,19.20
2009,07,27,00,52,19.20
2009,07,27,00,53,19.20
2009,07,27,00,54,19.20
2009,07,27,00,55,19.20
2009,07,27,00,56,19.20
2009,07,27,00,57,19.20
2009,07,27,00,58,19.30
2009,07,27,00,59,19.30
2009,07,27,01,00,19.30
2009,07,27,01,01,19.30
2009,07,27,01,02,19.30
2009,07,27,01,03,19.30
2009,07,27,01,04,19.30
2009,07,27,01,05,19.30
2009,07,27,01,06,19.30
2009,07,27,01,07,19.20
2009,07,27,01,08,19.20
2009,07,27,01,09,19.20
2009,07,27,01,10,19.20
2009,07,27,01,11,19.20
2009,07,27,01,12,19.10
2009,07,27,01,13,19.10
2009,07,27,01,14,19.10
2009,07,27,01,15,19.10
2009,07,27,01,16,19.00
2009,07,27,01,17,19.00
2009,07,27,01,18,19.00
2009,07,27,01,19,18.90
2009,07,27,01,20,18.90
2009,07,27,01,21,18.90
2009,07,27,01,22,18.80
2009,07,27,01,23,18.80
2009,07,27,01,24,18.80
2009,07,27,01,25,18.80
2009,07,27,01,26,18.70
2009,07,27,01,27,18.70
2009,07,27,01,28,18.70
2009,07,27,01,29,18.70
2009,07,27,01,30,18.70
2009,07,27,01,31,18.70
2009,07,27,01,32,18.60
2009,07,27,01,33,18.60
2009,07,27,01,34,18.60
2009,07,27,01,35,18.60
2009,07,27,01,36,18.60
2009,07,27,01,37,18.50
2009,07,27,01,38,18.50
2009,07,27,01,39,18.50
2009,07,27,01,40,18.50
2009,07,27,01,41,18.40
2009,07,27,01,42,18.40
2009,07,27,01,43,18.40
2009,07,27,01,44,18.40
2009,07,27,01,45,18.40
2009,07,27,01,46,18.40
2009,07,27,01,47,18.40
2009,07,27,01,48,18.40
2009,07,27,01,49,18.40
2009,07,27,01,50,18.40
2009,07,27,01,51,18.30
2009,07,27,01,52,18.30
2009,07,27,01,53,18.30
2009,07,27,01,54,18.30
2009,07,27,01,55,18.30
2009,07,27,01,56,18.30
2009,07,27,01,57,18.30
2009,07,27,01,58,18.30
2009,07,27,01,59,18.30
2009,07,27,02,00,18.30
2009,07,27,02,01,18.30
2009,07,27,02,02,18.30
2009,07,27,02,03,18.30
2009,07,27,02,04,18.30
2009,07,27,02,05,18.30
2009,07,27,02,06,18.30
2009,07,27,02,07,18.30
2009,07,27,02,08,18.30
2009,07,27,02,09,18.30
2009,07,27,02,10,18.30
2009,07,27,02,11,18.30
2009,07,27,02,12,18.30
2009,07,27,02,13,18.30
2009,07,27,02,14,18.30
2009,07,27,02,15,18.30
2009,07,27,02,16,18.30
2009,07,27,02,17,18.30
2009,07,27,02,18,18.30
2009,07,27,02,19,18.30
2009,07,27,02,20,18.30
2009,07,27,02,21,18.30
2009,07,27,02,22,18.30
2009,07,27,02,23,18.30
2009,07,27,02,24,18.30
2009,07,27,02,25,18.30
2009,07,27,02,26,18.30
2009,07,27,02,27,18.30
2009,07,27,02,28,18.30
2009,07,27,02,29,18.30
2009,07,27,02,30,18.30
2009,07,27,02,31,18.30
2009,07,27,02,32,18.30
2009,07,27,02,33,18.30
2009,07,27,02,34,18.30
2009,07,27,02,35,18.30
2009,07,27,02,36,18.20
2009,07,27,02,37,18.20
2009,07,27,02,38,18.20
2009,07,27,02,39,18.20
2009,07,27,02,40,18.20
2009,07,27,02,41,18.20
2009,07,27,02,42,18.20
2009,07,27,02,43,18.20
2009,07,27,02,44,18.20
2009,07,27,02,45,18.20
2009,07,27,02,46,18.10
2009,07,27,02,47,18.10
2009,07,27,02,48,18.10
2009,07,27,02,49,18.10
2009,07,27,02,50,18.10
2009,07,27,02,51,18.10
2009,07,27,02,52,18.10
2009,07,27,02,53,18.10
2009,07,27,02,54,18.10
2009,07,27,02,55,18.10
2009,07,27,02,56,18.10
2009,07,27,02,57,18.10
2009,07,27,02,58,18.10
2009,07,27,02,59,18.10
2009,07,27,03,00,18.10
2009,07,27,03,01,18.10
2009,07,27,03,02,18.10
2009,07,27,03,03,18.10
2009,07,27,03,04,18.10
2009,07,27,03,05,18.10
2009,07,27,03,06,18.10
2009,07,27,03,07,18.10
2009,07,27,03,08,18.10
2009,07,27,03,09,18.00
2009,07,27,03,10,18.00
2009,07,27,03,11,18.00
2009,07,27,03,12,18.00
2009,07,27,03,13,18.00
2009,07,27,03,14,17.90
2009,07,27,03,15,17.90
2009,07,27,03,16,17.90
2009,07,27,03,17,17.90
2009,07,27,03,18,17.90
2009,07,27,03,19,17.90
2009,07,27,03,20,17.90
2009,07,27,03,21,17.90
2009,07,27,03,22,17.90
2009,07,27,03,23,17.90
2009,07,27,03,24,17.90
2009,07,27,03,25,17.80
2009,07,27,03,26,17.80
2009,07,27,03,27,17.80
2009,07,27,03,28,17.80
2009,07,27,03,29,17.80
2009,07,27,03,30,17.70
2009,07,27,03,31,17.70
2009,07,27,03,32,17.70
2009,07,27,03,33,17.70
2009,07,27,03,34,17.70
2009,07,27,03,35,17.70
2009,07,27,03,36,17.70
2009,07,27,03,37,17.70
2009,07,27,03,38,17.70
2009,07,27,03,39,17.80
2009,07,27,03,40,17.80
2009,07,27,03,41,17.70
2009,07,27,03,42,17.70
2009,07,27,03,43,17.80
2009,07,27,03,44,17.80
2009,07,27,03,45,17.80
2009,07,27,03,46,17.80
2009,07,27,03,47,17.80
2009,07,27,03,48,17.80
2009,07,27,03,49,17.80
2009,07,27,03,50,17.80
2009,07,27,03,51,17.80
2009,07,27,03,52,17.80
2009,07,27,03,53,17.80
2009,07,27,03,54,17.80
2009,07,27,03,55,17.80
2009,07,27,03,56,17.80
2009,07,27,03,57,17.80
2009,07,27,03,58,17.80
2009,07,27,03,59,17.80
2009,07,27,04,00,17.80
2009,07,27,04,01,17.80
2009,07,27,04,02,17.80
2009,07,27,04,03,17.80
2009,07,27,04,04,17.80
2009,07,27,04,05,17.80
2009,07,27,04,06,17.80
2009,07,27,04,07,17.80
2009,07,27,04,08,17.80
2009,07,27,04,09,17.80
2009,07,27,04,10,17.80
2009,07,27,04,11,17.80
2009,07,27,04,12,17.80
2009,07,27,04,13,17.80
2009,07,27,04,14,17.80
2009,07,27,04,15,17.80
2009,07,27,04,16,17.80
2009,07,27,04,17,17.80
2009,07,27,04,18,17.80
2009,07,27,04,19,17.80
2009,07,27,04,20,17.80
2009,07,27,04,21,17.80
2009,07,27,04,22,17.80
2009,07,27,04,23,17.80
2009,07,27,04,24,17.80
2009,07,27,04,25,17.80
2009,07,27,04,26,17.80
2009,07,27,04,27,17.80
2009,07,27,04,28,17.80
2009,07,27,04,29,17.90
2009,07,27,04,30,17.90
2009,07,27,04,31,17.90
2009,07,27,04,32,17.80
2009,07,27,04,33,17.80
2009,07,27,04,34,17.80
2009,07,27,04,35,17.80
2009,07,27,04,36,17.80
2009,07,27,04,37,17.80
2009,07,27,04,38,17.80
2009,07,27,04,39,17.80
2009,07,27,04,40,17.80
2009,07,27,04,41,17.80
2009,07,27,04,42,17.70
2009,07,27,04,43,17.70
2009,07,27,04,44,17.70
2009,07,27,04,45,17.70
2009,07,27,04,46,17.70
2009,07,27,04,47,17.70
2009,07,27,04,48,17.60
2009,07,27,04,49,17.60
2009,07,27,04,50,17.60
2009,07,27,04,51,17.60
2009,07,27,04,52,17.60
2009,07,27,04,53,17.60
2009,07,27,04,54,17.60
2009,07,27,04,55,17.60
2009,07,27,04,56,17.60
2009,07,27,04,57,17.60
2009,07,27,04,58,17.50
2009,07,27,04,59,17.50
2009,07,27,05,00,17.50
2009,07,27,05,01,17.50
2009,07,27,05,02,17.50
2009,07,27,05,03,17.50
2009,07,27,05,04,17.40
2009,07,27,05,05,17.40
2009,07,27,05,06,17.40
2009,07,27,05,07,17.40
2009,07,27,05,08,17.40
2009,07,27,05,09,17.30
2009,07,27,05,10,17.30
2009,07,27,05,11,17.30
2009,07,27,05,12,17.30
2009,07,27,05,13,17.30
2009,07,27,05,14,17.30
2009,07,27,05,15,17.30
2009,07,27,05,16,17.40
2009,07,27,05,17,17.40
2009,07,27,05,18,17.40
2009,07,27,05,19,17.40
2009,07,27,05,20,17.40
2009,07,27,05,21,17.40
2009,07,27,05,22,17.40
2009,07,27,05,23,17.30
2009,07,27,05,24,17.30
2009,07,27,05,25,17.30
2009,07,27,05,26,17.30
2009,07,27,05,27,17.30
2009,07,27,05,28,17.30
2009,07,27,05,29,17.30
2009,07,27,05,30,17.30
2009,07,27,05,31,17.30
2009,07,27,05,32,17.30
2009,07,27,05,33,17.30
2009,07,27,05,34,17.30
2009,07,27,05,35,17.30
2009,07,27,05,36,17.30
2009,07,27,05,37,17.30
2009,07,27,05,38,17.30
2009,07,27,05,39,17.30
2009,07,27,05,40,17.30
2009,07,27,05,41,17.30
2009,07,27,05,42,17.30
2009,07,27,05,43,17.30
2009,07,27,05,44,17.30
2009,07,27,05,45,17.30
2009,07,27,05,46,17.40
2009,07,27,05,47,17.40
2009,07,27,05,48,17.40
2009,07,27,05,49,17.40
2009,07,27,05,50,17.40
2009,07,27,05,51,17.40
2009,07,27,05,52,17.40
2009,07,27,05,53,17.40
2009,07,27,05,54,17.40
2009,07,27,05,55,17.40
2009,07,27,05,56,17.40
2009,07,27,05,57,17.30
2009,07,27,05,58,17.30
2009,07,27,05,59,17.30
2009,07,27,06,00,17.30
2009,07,27,06,01,17.30
2009,07,27,06,02,17.30
2009,07,27,06,03,17.30
2009,07,27,06,04,17.30
2009,07,27,06,05,17.30
2009,07,27,06,06,17.30
2009,07,27,06,07,17.30
2009,07,27,06,08,17.30
2009,07,27,06,09,17.30
2009,07,27,06,10,17.30
2009,07,27,06,11,17.30
2009,07,27,06,12,17.30
2009,07,27,06,13,17.30
2009,07,27,06,14,17.30
2009,07,27,06,15,17.30
2009,07,27,06,16,17.30
2009,07,27,06,17,17.30
2009,07,27,06,18,17.30
2009,07,27,06,19,17.30
2009,07,27,06,20,17.40
2009,07,27,06,21,17.40
2009,07,27,06,22,17.40
2009,07,27,06,23,17.50
2009,07,27,06,24,17.50
2009,07,27,06,25,17.60
2009,07,27,06,26,17.60
2009,07,27,06,27,17.70
2009,07,27,06,28,17.70
2009,07,27,06,29,17.70
2009,07,27,06,30,17.80
2009,07,27,06,31,17.80
2009,07,27,06,32,17.80
2009,07,27,06,33,17.90
2009,07,27,06,34,17.90
2009,07,27,06,35,18.00
2009,07,27,06,36,18.00
2009,07,27,06,37,18.00
2009,07,27,06,38,18.10
2009,07,27,06,39,18.10
2009,07,27,06,40,18.10
2009,07,27,06,41,18.10
2009,07,27,06,42,18.10
2009,07,27,06,43,18.10
2009,07,27,06,44,18.20
2009,07,27,06,45,18.20
2009,07,27,06,46,18.20
2009,07,27,06,47,18.30
2009,07,27,06,48,18.30
2009,07,27,06,49,18.30
2009,07,27,06,50,18.40
2009,07,27,06,51,18.40
2009,07,27,06,52,18.40
2009,07,27,06,53,18.50
2009,07,27,06,54,18.60
2009,07,27,06,55,18.60
2009,07,27,06,56,18.70
2009,07,27,06,57,18.70
2009,07,27,06,58,18.70
2009,07,27,06,59,18.80
2009,07,27,07,00,18.80
2009,07,27,07,01,18.90
2009,07,27,07,02,18.90
2009,07,27,07,03,18.90
2009,07,27,07,04,18.90
2009,07,27,07,05,19.00
2009,07,27,07,06,19.10
2009,07,27,07,07,19.10
2009,07,27,07,08,19.20
2009,07,27,07,09,19.20
2009,07,27,07,10,19.30
2009,07,27,07,11,19.30
2009,07,27,07,12,19.40
2009,07,27,07,13,19.40
2009,07,27,07,14,19.50
2009,07,27,07,15,19.60
2009,07,27,07,16,19.60
2009,07,27,07,17,19.70
2009,07,27,07,18,19.70
2009,07,27,07,19,19.80
2009,07,27,07,20,19.80
2009,07,27,07,21,19.80
2009,07,27,07,22,19.90
2009,07,27,07,23,19.90
2009,07,27,07,24,20.00
2009,07,27,07,25,20.00
2009,07,27,07,26,20.10
2009,07,27,07,27,20.20
2009,07,27,07,28,20.20
2009,07,27,07,29,20.20
2009,07,27,07,30,20.30
2009,07,27,07,31,20.40
2009,07,27,07,32,20.40
2009,07,27,07,33,20.50
2009,07,27,07,34,20.60
2009,07,27,07,35,20.70
2009,07,27,07,36,20.70
2009,07,27,07,37,20.80
2009,07,27,07,38,20.90
2009,07,27,07,39,21.00
2009,07,27,07,40,21.10
2009,07,27,07,41,21.20
2009,07,27,07,42,21.20
2009,07,27,07,43,21.30
2009,07,27,07,44,21.30
2009,07,27,07,45,21.40
2009,07,27,07,46,21.50
2009,07,27,07,47,21.50
2009,07,27,07,48,21.60
2009,07,27,07,49,21.60
2009,07,27,07,50,21.70
2009,07,27,07,51,21.80
2009,07,27,07,52,21.80
2009,07,27,07,53,21.90
2009,07,27,07,54,21.90
2009,07,27,07,55,22.00
2009,07,27,07,56,22.00
2009,07,27,07,57,22.10
2009,07,27,07,58,22.20
2009,07,27,07,59,22.20
2009,07,27,08,00,22.30
2009,07,27,08,01,22.30
2009,07,27,08,02,22.30
2009,07,27,08,03,22.30
2009,07,27,08,04,22.40
2009,07,27,08,05,22.40
2009,07,27,08,06,22.40
2009,07,27,08,07,22.40
2009,07,27,08,08,22.40
2009,07,27,08,09,22.40
2009,07,27,08,10,22.40
2009,07,27,08,11,22.40
2009,07,27,08,12,22.40
2009,07,27,08,13,22.50
2009,07,27,08,14,22.50
2009,07,27,08,15,22.50
2009,07,27,08,16,22.60
2009,07,27,08,17,22.60
2009,07,27,08,18,22.60
2009,07,27,08,19,22.70
2009,07,27,08,20,22.70
2009,07,27,08,21,22.80
2009,07,27,08,22,22.90
2009,07,27,08,23,22.90
2009,07,27,08,24,23.00
2009,07,27,08,25,23.00
2009,07,27,08,26,23.10
2009,07,27,08,27,23.10
2009,07,27,08,28,23.20
2009,07,27,08,29,23.20
2009,07,27,08,30,23.20
2009,07,27,08,31,23.30
2009,07,27,08,32,23.30
2009,07,27,08,33,23.40
2009,07,27,08,34,23.40
2009,07,27,08,35,23.40
2009,07,27,08,36,23.50
2009,07,27,08,37,23.50
2009,07,27,08,38,23.60
2009,07,27,08,39,23.60
2009,07,27,08,40,23.60
2009,07,27,08,41,23.70
2009,07,27,08,42,23.70
2009,07,27,08,43,23.70
2009,07,27,08,44,23.80
2009,07,27,08,45,23.80
2009,07,27,08,46,23.90
2009,07,27,08,47,23.90
2009,07,27,08,48,24.00
2009,07,27,08,49,24.00
2009,07,27,08,50,24.10
2009,07,27,08,51,24.10
2009,07,27,08,52,24.20
2009,07,27,08,53,24.20
2009,07,27,08,54,24.20
2009,07,27,08,55,24.20
2009,07,27,08,56,24.30
2009,07,27,08,57,24.30
2009,07,27,08,58,24.30
2009,07,27,08,59,24.40
2009,07,27,09,00,24.40
2009,07,27,09,01,24.40
2009,07,27,09,02,24.50
2009,07,27,09,03,24.50
2009,07,27,09,04,24.50
2009,07,27,09,05,24.60
2009,07,27,09,06,24.60
2009,07,27,09,07,24.70
2009,07,27,09,08,24.70
2009,07,27,09,09,24.80
2009,07,27,09,10,24.80
2009,07,27,09,11,24.90
2009,07,27,09,12,25.00
2009,07,27,09,13,25.00
2009,07,27,09,14,25.10
2009,07,27,09,15,25.20
2009,07,27,09,16,25.20
2009,07,27,09,17,25.30
2009,07,27,09,18,25.30
2009,07,27,09,19,25.40
2009,07,27,09,20,25.40
2009,07,27,09,21,25.30
2009,07,27,09,22,25.30
2009,07,27,09,23,25.30
2009,07,27,09,24,25.30
2009,07,27,09,25,25.30
2009,07,27,09,26,25.30
2009,07,27,09,27,25.40
2009,07,27,09,28,25.40
2009,07,27,09,29,25.50
2009,07,27,09,30,25.50
2009,07,27,09,31,25.60
2009,07,27,09,32,25.70
2009,07,27,09,33,25.80
2009,07,27,09,34,25.90
2009,07,27,09,35,25.90
2009,07,27,09,36,26.10
2009,07,27,09,37,26.20
2009,07,27,09,38,26.30
2009,07,27,09,39,26.30
2009,07,27,09,40,26.40
2009,07,27,09,41,26.40
2009,07,27,09,42,26.40
2009,07,27,09,43,26.40
2009,07,27,09,44,26.40
2009,07,27,09,45,26.40
2009,07,27,09,46,26.40
2009,07,27,09,47,26.40
2009,07,27,09,48,26.40
2009,07,27,09,49,26.50
2009,07,27,09,50,26.50
2009,07,27,09,51,26.60
2009,07,27,09,52,26.70
2009,07,27,09,53,26.80
2009,07,27,09,54,26.90
2009,07,27,09,55,26.90
2009,07,27,09,56,26.90
2009,07,27,09,57,26.90
2009,07,27,09,58,26.90
2009,07,27,09,59,26.80
2009,07,27,10,00,26.80
2009,07,27,10,01,26.70
2009,07,27,10,02,26.70
2009,07,27,10,03,26.70
2009,07,27,10,04,26.70
2009,07,27,10,05,26.70
2009,07,27,10,06,26.70
2009,07,27,10,07,26.70
2009,07,27,10,08,26.90
2009,07,27,10,09,27.00
2009,07,27,10,10,27.10
2009,07,27,10,11,27.10
2009,07,27,10,12,27.20
2009,07,27,10,13,27.30
2009,07,27,10,14,27.30
2009,07,27,10,15,27.30
2009,07,27,10,16,27.20
2009,07,27,10,17,27.20
2009,07,27,10,18,27.20
2009,07,27,10,19,27.20
2009,07,27,10,20,27.10
2009,07,27,10,21,27.10
2009,07,27,10,22,27.10
2009,07,27,10,23,27.10
2009,07,27,10,24,27.10
2009,07,27,10,25,27.10
2009,07,27,10,26,27.10
2009,07,27,10,27,27.10
2009,07,27,10,28,27.20
2009,07,27,10,29,27.30
2009,07,27,10,30,27.40
2009,07,27,10,31,27.60
2009,07,27,10,32,27.70
2009,07,27,10,33,27.80
2009,07,27,10,34,27.90
2009,07,27,10,35,27.90
2009,07,27,10,36,27.90
2009,07,27,10,37,27.90
2009,07,27,10,38,27.90
2009,07,27,10,39,28.00
2009,07,27,10,40,28.00
2009,07,27,10,41,28.10
2009,07,27,10,42,28.10
2009,07,27,10,43,28.10
2009,07,27,10,44,28.10
2009,07,27,10,45,28.10
2009,07,27,10,46,28.10
2009,07,27,10,47,28.20
2009,07,27,10,48,28.20
2009,07,27,10,49,28.10
2009,07,27,10,50,28.10
2009,07,27,10,51,28.10
2009,07,27,10,52,28.10
2009,07,27,10,53,28.10
2009,07,27,10,54,28.10
2009,07,27,10,55,28.10
2009,07,27,10,56,28.20
2009,07,27,10,57,28.20
2009,07,27,10,58,28.20
2009,07,27,10,59,28.10
2009,07,27,11,00,28.10
2009,07,27,11,01,28.10
2009,07,27,11,02,28.10
2009,07,27,11,03,28.10
2009,07,27,11,04,28.10
2009,07,27,11,05,28.10
2009,07,27,11,06,28.20
2009,07,27,11,07,28.30
2009,07,27,11,08,28.30
2009,07,27,11,09,28.40
2009,07,27,11,10,28.50
2009,07,27,11,11,28.50
2009,07,27,11,12,28.60
2009,07,27,11,13,28.60
2009,07,27,11,14,28.70
2009,07,27,11,15,28.70
2009,07,27,11,16,28.70
2009,07,27,11,17,28.60
2009,07,27,11,18,28.60
2009,07,27,11,19,28.50
2009,07,27,11,20,28.50
2009,07,27,11,21,28.50
2009,07,27,11,22,28.50
2009,07,27,11,23,28.50
2009,07,27,11,24,28.50
2009,07,27,11,25,28.60
2009,07,27,11,26,28.70
2009,07,27,11,27,28.70
2009,07,27,11,28,28.80
2009,07,27,11,29,28.80
2009,07,27,11,30,28.80
2009,07,27,11,31,28.90
2009,07,27,11,32,29.00
2009,07,27,11,33,29.10
2009,07,27,11,34,29.10
2009,07,27,11,35,29.20
2009,07,27,11,36,29.20
2009,07,27,11,37,29.30
2009,07,27,11,38,29.40
2009,07,27,11,39,29.40
2009,07,27,11,40,29.50
2009,07,27,11,41,29.50
2009,07,27,11,42,29.50
2009,07,27,11,43,29.40
2009,07,27,11,44,29.50
2009,07,27,11,45,29.50
2009,07,27,11,46,29.60
2009,07,27,11,47,29.60
2009,07,27,11,48,29.70
2009,07,27,11,49,29.70
2009,07,27,11,50,29.70
2009,07,27,11,51,29.70
2009,07,27,11,52,29.60
2009,07,27,11,53,29.60
2009,07,27,11,54,29.60
2009,07,27,11,55,29.50
2009,07,27,11,56,29.50
2009,07,27,11,57,29.60
2009,07,27,11,58,29.60
2009,07,27,11,59,29.60
2009,07,27,12,00,29.50
2009,07,27,12,01,29.60
2009,07,27,12,02,29.60
2009,07,27,12,03,29.60
2009,07,27,12,04,29.60
2009,07,27,12,05,29.60
2009,07,27,12,06,29.70
2009,07,27,12,07,29.70
2009,07,27,12,08,29.80
2009,07,27,12,09,29.80
2009,07,27,12,10,29.80
2009,07,27,12,11,29.80
2009,07,27,12,12,29.90
2009,07,27,12,13,29.90
2009,07,27,12,14,30.00
2009,07,27,12,15,30.10
2009,07,27,12,16,30.10
2009,07,27,12,17,30.10
2009,07,27,12,18,30.10
2009,07,27,12,19,30.20
2009,07,27,12,20,30.30
2009,07,27,12,21,30.30
2009,07,27,12,22,30.30
2009,07,27,12,23,30.30
2009,07,27,12,24,30.30
2009,07,27,12,25,30.30
2009,07,27,12,26,30.20
2009,07,27,12,27,30.10
2009,07,27,12,28,30.10
2009,07,27,12,29,30.10
2009,07,27,12,30,30.10
2009,07,27,12,31,30.20
2009,07,27,12,32,30.30
2009,07,27,12,33,30.30
2009,07,27,12,34,30.20
2009,07,27,12,35,30.20
2009,07,27,12,36,30.20
2009,07,27,12,37,30.10
2009,07,27,12,38,30.10
2009,07,27,12,39,30.20
2009,07,27,12,40,30.30
2009,07,27,12,41,30.30
2009,07,27,12,42,30.30
2009,07,27,12,43,30.40
2009,07,27,12,44,30.60
2009,07,27,12,45,30.60
2009,07,27,12,46,30.60
2009,07,27,12,47,30.50
2009,07,27,12,48,30.50
2009,07,27,12,49,30.60
2009,07,27,12,50,30.60
2009,07,27,12,51,30.50
2009,07,27,12,52,30.50
2009,07,27,12,53,30.60
2009,07,27,12,54,30.70
2009,07,27,12,55,30.80
2009,07,27,12,56,30.80
2009,07,27,12,57,30.70
2009,07,27,12,58,30.80
2009,07,27,12,59,30.80
2009,07,27,13,00,30.90
2009,07,27,13,01,31.00
2009,07,27,13,02,31.20
2009,07,27,13,03,31.30
2009,07,27,13,04,31.30
2009,07,27,13,05,31.30
2009,07,27,13,06,31.30
2009,07,27,13,07,31.30
2009,07,27,13,08,31.20
2009,07,27,13,09,31.20
2009,07,27,13,10,31.20
2009,07,27,13,11,31.20
2009,07,27,13,12,31.20
2009,07,27,13,13,31.20
2009,07,27,13,14,31.20
2009,07,27,13,15,31.20
2009,07,27,13,16,31.10
2009,07,27,13,17,31.00
2009,07,27,13,18,31.00
2009,07,27,13,19,31.10
2009,07,27,13,20,31.20
2009,07,27,13,21,31.30
2009,07,27,13,22,31.30
2009,07,27,13,23,31.30
2009,07,27,13,24,31.20
2009,07,27,13,25,31.20
2009,07,27,13,26,31.30
2009,07,27,13,27,31.30
2009,07,27,13,28,31.30
2009,07,27,13,29,31.30
2009,07,27,13,30,31.40
2009,07,27,13,31,31.30
2009,07,27,13,32,31.30
2009,07,27,13,33,31.40
2009,07,27,13,34,31.50
2009,07,27,13,35,31.50
2009,07,27,13,36,31.40
2009,07,27,13,37,31.30
2009,07,27,13,38,31.30
2009,07,27,13,39,31.30
2009,07,27,13,40,31.30
2009,07,27,13,41,31.30
2009,07,27,13,42,31.30
2009,07,27,13,43,31.50
2009,07,27,13,44,31.50
2009,07,27,13,45,31.40
2009,07,27,13,46,31.40
2009,07,27,13,47,31.40
2009,07,27,13,48,31.40
2009,07,27,13,49,31.40
2009,07,27,13,50,31.40
2009,07,27,13,51,31.50
2009,07,27,13,52,31.60
2009,07,27,13,53,31.60
2009,07,27,13,54,31.60
2009,07,27,13,55,31.50
2009,07,27,13,56,31.40
2009,07,27,13,57,31.40
2009,07,27,13,58,31.40
2009,07,27,13,59,31.40
2009,07,27,14,00,31.40
2009,07,27,14,01,31.40
2009,07,27,14,02,31.40
2009,07,27,14,03,31.40
2009,07,27,14,04,31.50
2009,07,27,14,05,31.60
2009,07,27,14,06,31.70
2009,07,27,14,07,31.60
2009,07,27,14,08,31.60
2009,07,27,14,09,31.80
2009,07,27,14,10,31.90
2009,07,27,14,11,31.90
2009,07,27,14,12,31.80
2009,07,27,14,13,31.80
2009,07,27,14,14,31.90
2009,07,27,14,15,32.00
2009,07,27,14,16,32.10
2009,07,27,14,17,32.20
2009,07,27,14,18,32.10
2009,07,27,14,19,32.00
2009,07,27,14,20,31.90
2009,07,27,14,21,31.90
2009,07,27,14,22,31.90
2009,07,27,14,23,31.90
2009,07,27,14,24,32.00
2009,07,27,14,25,31.90
2009,07,27,14,26,32.00
2009,07,27,14,27,32.00
2009,07,27,14,28,32.00
2009,07,27,14,29,32.00
2009,07,27,14,30,31.90
2009,07,27,14,31,31.90
2009,07,27,14,32,31.90
2009,07,27,14,33,31.90
2009,07,27,14,34,31.90
2009,07,27,14,35,32.00
2009,07,27,14,36,32.10
2009,07,27,14,37,32.20
2009,07,27,14,38,32.10
2009,07,27,14,39,32.00
2009,07,27,14,40,31.90
2009,07,27,14,41,32.00
2009,07,27,14,42,32.00
2009,07,27,14,43,31.90
2009,07,27,14,44,31.90
2009,07,27,14,45,31.90
2009,07,27,14,46,31.90
2009,07,27,14,47,31.90
2009,07,27,14,48,31.90
2009,07,27,14,49,31.80
2009,07,27,14,50,31.80
2009,07,27,14,51,31.80
2009,07,27,14,52,31.90
2009,07,27,14,53,32.00
2009,07,27,14,54,32.00
2009,07,27,14,55,32.00
2009,07,27,14,56,32.00
2009,07,27,14,57,32.00
2009,07,27,14,58,31.90
2009,07,27,14,59,31.90
2009,07,27,15,00,31.90
2009,07,27,15,01,31.90
2009,07,27,15,02,31.90
2009,07,27,15,03,32.00
2009,07,27,15,04,31.90
2009,07,27,15,05,31.80
2009,07,27,15,06,31.70
2009,07,27,15,07,31.60
2009,07,27,15,08,31.60
2009,07,27,15,09,31.60
2009,07,27,15,10,31.70
2009,07,27,15,11,31.70
2009,07,27,15,12,31.70
2009,07,27,15,13,31.70
2009,07,27,15,14,31.60
2009,07,27,15,15,31.70
2009,07,27,15,16,31.80
2009,07,27,15,17,31.90
2009,07,27,15,18,32.00
2009,07,27,15,19,32.10
2009,07,27,15,20,32.20
2009,07,27,15,21,32.20
2009,07,27,15,22,32.10
2009,07,27,15,23,32.10
2009,07,27,15,24,32.10
2009,07,27,15,25,32.10
2009,07,27,15,26,32.10
2009,07,27,15,27,32.10
2009,07,27,15,28,32.10
2009,07,27,15,29,32.20
2009,07,27,15,30,32.20
2009,07,27,15,31,32.00
2009,07,27,15,32,31.90
2009,07,27,15,33,31.80
2009,07,27,15,34,31.80
2009,07,27,15,35,31.80
2009,07,27,15,36,31.90
2009,07,27,15,37,31.90
2009,07,27,15,38,32.10
2009,07,27,15,39,32.20
2009,07,27,15,40,32.30
2009,07,27,15,41,32.30
2009,07,27,15,42,32.30
2009,07,27,15,43,32.40
2009,07,27,15,44,32.50
2009,07,27,15,45,32.50
2009,07,27,15,46,32.40
2009,07,27,15,47,32.40
2009,07,27,15,48,32.40
2009,07,27,15,49,32.40
2009,07,27,15,50,32.40
2009,07,27,15,51,32.40
2009,07,27,15,52,32.40
2009,07,27,15,53,32.30
2009,07,27,15,54,32.20
2009,07,27,15,55,32.10
2009,07,27,15,56,32.00
2009,07,27,15,57,32.00
2009,07,27,15,58,32.00
2009,07,27,15,59,32.00
2009,07,27,16,00,32.00
2009,07,27,16,01,32.10
2009,07,27,16,02,32.10
2009,07,27,16,03,32.10
2009,07,27,16,04,32.20
2009,07,27,16,05,32.10
2009,07,27,16,06,32.10
2009,07,27,16,07,32.00
2009,07,27,16,08,32.00
2009,07,27,16,09,32.00
2009,07,27,16,10,32.10
2009,07,27,16,11,32.20
2009,07,27,16,12,32.30
2009,07,27,16,13,32.30
2009,07,27,16,14,32.30
2009,07,27,16,15,32.30
2009,07,27,16,16,32.20
2009,07,27,16,17,32.20
2009,07,27,16,18,32.20
2009,07,27,16,19,32.10
2009,07,27,16,20,32.00
2009,07,27,16,21,32.00
2009,07,27,16,22,31.90
2009,07,27,16,23,31.90
2009,07,27,16,24,31.90
2009,07,27,16,25,31.90
2009,07,27,16,26,31.80
2009,07,27,16,27,31.90
2009,07,27,16,28,31.90
2009,07,27,16,29,31.90
2009,07,27,16,30,32.00
2009,07,27,16,31,32.00
2009,07,27,16,32,32.00
2009,07,27,16,33,32.00
2009,07,27,16,34,32.00
2009,07,27,16,35,32.00
2009,07,27,16,36,32.00
2009,07,27,16,37,32.10
2009,07,27,16,38,32.20
2009,07,27,16,39,32.20
2009,07,27,16,40,32.10
2009,07,27,16,41,32.10
2009,07,27,16,42,32.00
2009,07,27,16,43,31.90
2009,07,27,16,44,31.80
2009,07,27,16,45,31.90
2009,07,27,16,46,32.00
2009,07,27,16,47,32.00
2009,07,27,16,48,31.90
2009,07,27,16,49,31.80
2009,07,27,16,50,31.80
2009,07,27,16,51,31.80
2009,07,27,16,52,31.80
2009,07,27,16,53,31.80
2009,07,27,16,54,31.80
2009,07,27,16,55,31.80
2009,07,27,16,56,31.80
2009,07,27,16,57,31.80
2009,07,27,16,58,31.80
2009,07,27,16,59,31.80
2009,07,27,17,00,31.80
2009,07,27,17,01,31.80
2009,07,27,17,02,31.80
2009,07,27,17,03,31.70
2009,07,27,17,04,31.70
2009,07,27,17,05,31.70
2009,07,27,17,06,31.70
2009,07,27,17,07,31.70
2009,07,27,17,08,31.60
2009,07,27,17,09,31.70
2009,07,27,17,10,31.70
2009,07,27,17,11,31.80
2009,07,27,17,12,31.90
2009,07,27,17,13,32.10
2009,07,27,17,14,32.10
2009,07,27,17,15,32.10
2009,07,27,17,16,32.00
2009,07,27,17,17,32.00
2009,07,27,17,18,31.90
2009,07,27,17,19,31.90